#timestamp,LO_Frequency,Hit 
1498262415.5,286047041.5,N
1498262435.4,286047040.1,N
1498262455.2,286047042.1,N
1498262475.0,286047042.5,N
1498262475.9,286047042.5,N
1498262495.8,286047042.4,N
1498262515.6,286047041.8,N
1498262535.4,286047041.4,N
1498262555.3,286047042.5,N
1498262575.1,286047041.6,N
1498262576.0,286047041.6,N
1498262595.8,286047043.0,N
1498262615.7,286047043.4,N
1498262635.5,286047043.5,N
1498262655.3,286047044.1,N
1498262675.1,286047039.7,N
1498262695.9,286047041.9,N
1498262715.7,286047043.9,N
1498262735.5,286047043.7,N
1498262755.4,286047043.6,N
1498262775.2,286047043.2,N
1498262795.0,286047043.6,N
1498262795.9,286047043.6,N
1498262815.8,286047043.7,N
1498262835.6,286047043.8,N
1498262855.4,286047043.7,N
1498262875.3,286047044.1,N
1498262895.1,286047043.6,N
1498262896.0,286047043.6,N
1498262915.8,286047044.8,N
1498262935.7,286047047.2,N
1498262955.5,286047049.2,N
1498262975.3,286047046.5,N
1498262995.1,286047046.5,N
1498263015.9,286047049.1,N
1498263035.7,286047046.1,N
1498263055.5,286047048.3,N
1498263075.4,286047049.2,N
1498263095.2,286047046.4,N
1498263115.0,286047049.1,N
1498263115.9,286047049.1,N
1498263135.8,286047048.7,N
1498263155.6,286047048.9,N
1498263175.4,286047050.7,N
1498263195.3,286047048.2,N
1498263215.1,286047049.0,N
1498263216.0,286047049.0,N
1498263235.8,286047046.8,N
1498263255.7,286047046.4,N
1498263275.5,286047046.8,N
1498263295.3,286047047.3,N
1498263315.1,286047046.5,N
1498263335.9,286047046.4,N
1498263355.7,286047048.5,N
1498263375.5,286047048.6,N
1498263395.4,286047048.5,N
1498263415.2,286047049.9,N
1498263435.0,286047049.9,N
1498263435.9,286047049.9,N
1498263455.8,286047049.9,N
1498263475.6,286047050.6,N
1498263495.4,286047049.7,N
1498263515.3,286047052.3,N
1498263535.1,286047053.8,N
1498263536.0,286047053.8,N
1498263555.8,286047051.5,N
1498263575.7,286047053.6,N
1498263595.5,286047053.4,N
1498263615.3,286047052.4,N
1498263635.2,286047052.4,N
1498263655.9,286047049.7,N
1498263675.7,286047049.4,N
1498263695.5,286047052.2,N
1498263715.4,286047051.4,N
1498263735.2,286047052.7,N
1498263755.0,286047053.3,N
1498263755.9,286047053.3,N
1498263775.8,286047053.7,N
1498263795.6,286047054.2,N
1498263815.4,286047057.2,N
1498263835.3,286047055.7,N
1498263855.1,286047060.3,N
1498263856.0,286047060.3,N
1498263875.8,286047060.1,N
1498263895.7,286047059.3,N
1498263915.5,286047057.3,N
1498263935.3,286047055.8,N
1498263955.2,286047057.4,N
1498263975.9,286047061.5,N
1498263995.7,286047061.1,N
1498264015.5,286047061.8,N
1498264035.4,286047061.2,N
1498264055.2,286047061.1,N
1498264075.0,286047062.4,N
1498264075.9,286047062.4,N
1498264095.8,286047064.2,N
1498264115.6,286047066.6,N
1498264135.4,286047064.8,N
1498264155.3,286047065.2,N
1498264175.1,286047062.3,N
1498264176.0,286047062.3,N
1498264195.8,286047062.4,N
1498264215.7,286047064.3,N
1498264235.5,286047066.4,N
1498264255.3,286047068.4,N
1498264275.1,286047067.9,N
1498264295.9,286047068.3,N
1498264315.7,286047065.6,N
1498264335.5,286047064.1,N
1498264355.4,286047064.9,N
1498264375.2,286047062.1,N
1498264395.0,286047062.7,N
1498264395.9,286047062.7,N
1498264415.8,286047062.1,N
1498264435.6,286047064.7,N
1498264455.4,286047064.9,N
1498264475.3,286047064.7,N
1498264495.1,286047066.3,N
1498264496.0,286047066.3,N
1498264515.8,286047065.7,N
1498264535.7,286047063.7,N
1498264555.5,286047064.9,N
1498264575.3,286047064.4,N
1498264595.1,286047065.1,N
1498264615.9,286047062.3,N
1498264635.7,286047062.6,N
1498264655.5,286047062.6,N
1498264675.4,286047064.8,N
1498264695.2,286047062.4,N
1498264715.0,286047060.6,N
1498264715.9,286047060.6,N
1498264735.8,286047060.7,N
1498264755.6,286047063.0,N
1498264775.4,286047064.7,N
1498264795.3,286047062.3,N
1498264815.1,286047066.4,N
1498264816.0,286047066.4,N
1498264835.8,286047066.3,N
1498264855.7,286047064.4,N
1498264875.5,286047065.0,N
1498264895.3,286047064.5,N
1498264915.1,286047065.0,N
1498264935.9,286047064.7,N
1498264955.7,286047066.4,N
1498264975.5,286047065.7,N
1498264995.4,286047067.2,N
1498265015.2,286047069.4,N
1498265035.0,286047067.5,N
1498265035.9,286047067.5,N
1498265055.8,286047065.9,N
1498265075.6,286047065.9,N
1498265095.4,286047066.0,N
1498265115.3,286047063.7,N
1498265135.1,286047064.1,N
1498265136.0,286047064.1,N
1498265155.8,286047066.1,N
1498265175.7,286047065.4,N
1498265195.5,286047066.5,N
1498265215.3,286047066.7,N
1498265235.1,286047064.0,N
1498265255.9,286047064.1,N
1498265275.7,286047064.1,N
1498265295.5,286047064.0,N
1498265315.4,286047064.6,N
1498265335.2,286047064.2,N
1498265355.0,286047064.7,N
1498265355.9,286047064.7,N
1498265375.8,286047065.0,N
1498265395.6,286047063.7,N
1498265415.4,286047064.1,N
1498265435.3,286047065.9,N
1498265455.1,286047065.4,N
1498265456.0,286047065.4,N
1498265475.8,286047067.9,N
1498265495.7,286047067.8,N
1498265515.5,286047069.2,N
1498265535.3,286047071.1,Y
1498265555.2,286047039.3,N
1498265575.9,286047036.6,N
1498265595.7,286047038.5,N
1498265615.5,286047040.7,N
1498265635.4,286047040.3,N
1498265655.2,286047040.4,N
1498265675.0,286047040.8,N
1498265675.9,286047040.8,N
1498265695.8,286047040.6,N
1498265715.6,286047040.0,N
1498265735.4,286047041.3,N
1498265755.3,286047044.2,N
1498265775.1,286047043.4,N
1498265776.0,286047043.4,N
1498265795.8,286047043.7,N
1498265815.7,286047044.3,N
1498265835.5,286047045.8,N
1498265855.3,286047041.4,N
1498265875.2,286047041.8,N
1498265895.9,286047041.8,N
1498265915.7,286047041.9,N
1498265935.5,286047042.0,N
1498265955.4,286047039.7,N
1498265975.2,286047044.3,N
1498265995.0,286047041.5,N
1498265995.9,286047041.5,N
